Location: Unspecified
(47.9110°N, 14.3980°E)
Time: 21:26:18
(UTC+00:00)

Cosmos 1741 Rocket - Pass Details

Date: 06 August 2020
Orbit: 761 x 783 km, 74.0° (Epoch: 22 September)

Event Time Altitude Azimuth Distance (km) Brightness Sun altitude
Exits shadow 21:19:24 46° 130° (SE) 1,029 4.2 -21.3°
Maximum altitude 21:20:04 49° 105° (ESE) 992 4.2 -21.3°
Drops below altitude 10° 21:25:07 10° 32° (NNE) 2,325 6.9 -21.7°
Sets 21:27:34 0° 27° (NNE) 3,261 7.8 -21.9°
